Location: Unspecified
(0.0000°N, 0.0000°E)
Time: 20:07:27
(UTC+00:00)

Diademe D-1D - Visible Passes

Search period start: 04 June 2023 00:00
Search period end: 14 June 2023 00:00
Orbit: 577 x 1645 km, 39.4° (Epoch: 04 June)

Date Brightness Start Highest point End Pass type
(mag) Time Alt. Az. Time Alt. Az. Time Alt. Az.
04 Jun 9.6 04:36:12 10° SSW 04:43:39 33° SE 04:52:14 10° ENE visible
05 Jun 9.7 03:53:39 16° S 03:57:58 23° SE 04:05:04 10° E visible
06 Jun 9.9 03:11:07 15° SSE 03:12:20 15° SE 03:17:10 10° ESE visible
06 Jun 8.6 04:58:37 13° SW 05:06:26 70° SE 05:16:31 10° NE visible
06 Jun 8.9 18:37:17 10° W 18:40:13 16° SW 18:42:57 10° S visible
07 Jun 8.8 04:16:05 26° SSW 04:20:46 52° SE 04:30:12 10° ENE visible
08 Jun 8.9 03:33:33 34° SSE 03:35:11 37° SE 03:43:37 10° ENE visible
08 Jun 8.7 05:21:04 10° WSW 05:29:23 57° NW 05:39:16 10° NE visible
09 Jun 9.6 02:50:59 25° ESE 02:50:59 25° ESE 02:56:38 10° E visible
09 Jun 8.3 04:38:29 27° WSW 04:43:35 75° NW 04:53:28 10° NE visible
10 Jun 10.4 02:08:24 11° ESE 02:08:24 11° ESE 02:09:03 10° E visible
10 Jun 8.0 03:55:54 57° SW 03:57:54 83° SE 04:07:29 10° NE visible
11 Jun 8.4 03:13:17 58° ESE 03:13:17 58° ESE 03:21:16 10° ENE visible
11 Jun 9.2 05:00:46 15° W 05:06:48 34° NW 05:15:24 10° NNE visible
12 Jun 9.6 02:30:37 27° E 02:30:37 27° E 02:34:51 10° ENE visible
12 Jun 8.6 04:18:06 34° W 04:20:57 44° NW 04:29:53 10° NNE visible
13 Jun 10.5 01:47:55 11° E 01:47:55 11° E 01:48:06 10° ENE visible
13 Jun 8.1 03:35:24 59° NW 03:35:24 59° NW 03:44:10 10° NE visible
13 Jun 9.9 05:25:58 10° WNW 05:30:35 15° NNW 05:35:36 10° N visible
